Time,TemperatureF,DewpointF,PressureIn,WindDirection,WindDirectionDegrees,WindSpeedMPH,WindSpeedGustMPH,Humidity,HourlyPrecipIn,Conditions,Clouds,dailyrainin,SoftwareType,DateUTC
2013-01-16 00:03:00,65.0,61.0,29.98,East,91,0.0,0.0,86,0.00,,,0.01,,2013-01-16 05:03:00,
2013-01-16 00:12:00,65.0,61.0,29.98,East,91,0.0,0.0,86,0.00,,,0.01,,2013-01-16 05:12:00,
2013-01-16 00:23:00,65.0,61.0,29.98,East,91,0.0,0.0,86,0.00,,,0.01,,2013-01-16 05:23:00,
2013-01-16 00:32:00,64.0,60.0,29.98,East,91,0.0,0.0,86,0.00,,,0.01,,2013-01-16 05:32:00,
2013-01-16 00:42:00,64.0,60.0,29.98,East,91,0.0,0.0,86,0.00,,,0.01,,2013-01-16 05:42:00,
2013-01-16 00:53:00,64.0,60.0,29.98,East,91,0.0,0.0,86,0.00,,,0.01,,2013-01-16 05:53:00,
2013-01-16 01:03:00,64.0,60.0,29.98,East,91,0.0,0.0,86,0.00,,,0.01,,2013-01-16 06:03:00,
2013-01-16 01:12:00,64.0,60.0,29.98,East,91,0.0,0.0,86,0.00,,,0.01,,2013-01-16 06:12:00,
2013-01-16 01:22:00,63.0,59.0,29.98,East,91,0.0,0.0,87,0.00,,,0.01,,2013-01-16 06:22:00,
2013-01-16 01:32:00,63.0,59.0,29.98,East,91,0.0,0.0,87,0.00,,,0.01,,2013-01-16 06:32:00,
2013-01-16 01:43:00,63.0,59.0,29.98,East,91,0.0,0.0,87,0.00,,,0.01,,2013-01-16 06:43:00,
2013-01-16 01:53:00,64.0,60.0,29.98,East,91,0.0,0.0,87,0.00,,,0.01,,2013-01-16 06:53:00,
2013-01-16 02:02:00,64.0,60.0,29.97,SE,124,0.0,1.0,88,0.00,,,0.01,,2013-01-16 07:02:00,
2013-01-16 02:12:00,64.0,60.0,29.97,SE,124,0.0,1.0,88,0.00,,,0.01,,2013-01-16 07:12:00,
2013-01-16 02:22:00,64.0,60.0,29.97,SE,124,0.0,0.0,88,0.00,,,0.01,,2013-01-16 07:22:00,
2013-01-16 02:33:00,65.0,62.0,29.97,ESE,112,0.0,1.0,89,0.00,,,0.01,,2013-01-16 07:33:00,
2013-01-16 02:42:00,65.0,62.0,29.97,ESE,112,0.0,1.0,89,0.00,,,0.01,,2013-01-16 07:42:00,
2013-01-16 02:52:00,65.0,62.0,29.98,ESE,105,0.0,0.0,89,0.00,,,0.01,,2013-01-16 07:52:00,
2013-01-16 03:03:00,64.0,61.0,29.97,ESE,123,0.0,0.0,90,0.00,,,0.01,,2013-01-16 08:03:00,
2013-01-16 03:12:00,64.0,61.0,29.97,ESE,123,0.0,0.0,90,0.00,,,0.01,,2013-01-16 08:12:00,
2013-01-16 03:22:00,64.0,61.0,29.97,SE,132,0.0,0.0,90,0.00,,,0.01,,2013-01-16 08:22:00,
2013-01-16 03:32:00,64.0,61.0,29.97,SE,132,0.0,0.0,90,0.00,,,0.01,,2013-01-16 08:32:00,
2013-01-16 03:42:00,64.0,61.0,29.97,SE,132,0.0,0.0,90,0.00,,,0.01,,2013-01-16 08:42:00,
2013-01-16 03:53:00,64.0,61.0,29.97,SE,132,0.0,0.0,90,0.00,,,0.01,,2013-01-16 08:53:00,
2013-01-16 04:02:00,63.0,60.0,29.97,SE,132,0.0,0.0,90,0.00,,,0.01,,2013-01-16 09:02:00,
2013-01-16 04:12:00,63.0,60.0,29.97,SE,132,0.0,0.0,90,0.00,,,0.01,,2013-01-16 09:12:00,
2013-01-16 04:22:00,62.0,59.0,29.97,SE,132,0.0,0.0,90,0.00,,,0.01,,2013-01-16 09:22:00,
2013-01-16 04:32:00,62.0,59.0,29.97,SE,132,0.0,0.0,90,0.00,,,0.01,,2013-01-16 09:32:00,
2013-01-16 04:42:00,62.0,59.0,29.97,SE,132,0.0,0.0,90,0.00,,,0.01,,2013-01-16 09:42:00,
2013-01-16 04:53:00,62.0,59.0,29.96,SE,132,0.0,0.0,90,0.00,,,0.01,,2013-01-16 09:53:00,
2013-01-16 05:02:00,61.0,58.0,29.96,SE,132,0.0,0.0,90,0.00,,,0.01,,2013-01-16 10:02:00,
2013-01-16 05:12:00,61.0,58.0,29.96,SE,132,0.0,0.0,90,0.00,,,0.01,,2013-01-16 10:12:00,
2013-01-16 05:22:00,61.0,58.0,29.96,SE,132,0.0,0.0,90,0.00,,,0.01,,2013-01-16 10:22:00,
2013-01-16 05:32:00,61.0,58.0,29.96,SE,132,0.0,0.0,90,0.00,,,0.01,,2013-01-16 10:32:00,
2013-01-16 05:42:00,61.0,58.0,29.96,SE,132,0.0,0.0,90,0.00,,,0.01,,2013-01-16 10:42:00,
2013-01-16 05:53:00,61.0,58.0,29.97,SE,132,0.0,0.0,90,0.00,,,0.01,,2013-01-16 10:53:00,
2013-01-16 06:02:00,61.0,58.0,29.97,SE,132,0.0,0.0,90,0.00,,,0.01,,2013-01-16 11:02:00,
2013-01-16 06:12:00,61.0,58.0,29.97,SE,132,0.0,0.0,90,0.00,,,0.01,,2013-01-16 11:12:00,
2013-01-16 06:23:00,60.0,57.0,29.97,SE,132,0.0,0.0,90,0.00,,,0.01,,2013-01-16 11:23:00,
2013-01-16 06:33:00,60.0,57.0,29.98,SE,132,0.0,0.0,91,0.00,,,0.01,,2013-01-16 11:33:00,
2013-01-16 06:43:00,60.0,57.0,29.98,SE,132,0.0,0.0,91,0.00,,,0.01,,2013-01-16 11:43:00,
2013-01-16 06:53:00,60.0,57.0,29.98,SE,132,0.0,0.0,91,0.00,,,0.01,,2013-01-16 11:53:00,
2013-01-16 07:03:00,59.0,56.0,29.98,SE,132,0.0,0.0,91,0.00,,,0.01,,2013-01-16 12:03:00,
2013-01-16 07:13:00,59.0,56.0,29.98,SE,132,0.0,0.0,91,0.00,,,0.01,,2013-01-16 12:13:00,
2013-01-16 07:22:00,59.0,56.0,29.99,SE,132,0.0,0.0,91,0.00,,,0.01,,2013-01-16 12:22:00,
2013-01-16 07:33:00,59.0,56.0,29.99,SE,132,0.0,0.0,91,0.00,,,0.01,,2013-01-16 12:33:00,
2013-01-16 07:43:00,59.0,56.0,29.99,SE,132,0.0,0.0,91,0.00,,,0.01,,2013-01-16 12:43:00,
2013-01-16 07:53:00,59.0,56.0,29.99,SE,132,0.0,0.0,91,0.00,,,0.00,,2013-01-16 12:53:00,
2013-01-16 08:03:00,58.0,55.0,30.00,East,86,0.0,0.0,91,0.00,,,0.00,,2013-01-16 13:03:00,
2013-01-16 08:12:00,58.0,55.0,30.00,East,86,0.0,0.0,91,0.00,,,0.00,,2013-01-16 13:12:00,
2013-01-16 08:23:00,58.0,55.0,30.00,East,86,0.0,0.0,91,0.00,,,0.00,,2013-01-16 13:23:00,
2013-01-16 08:33:00,59.0,57.0,30.01,East,86,0.0,0.0,92,0.00,,,0.00,,2013-01-16 13:33:00,
2013-01-16 08:43:00,59.0,57.0,30.01,East,86,0.0,0.0,92,0.00,,,0.00,,2013-01-16 13:43:00,
2013-01-16 08:53:00,62.0,60.0,30.01,East,96,0.0,0.0,94,0.00,,,0.00,,2013-01-16 13:53:00,
2013-01-16 09:03:00,65.0,63.0,30.01,ESE,105,0.0,1.0,93,0.00,,,0.00,,2013-01-16 14:03:00,
2013-01-16 09:12:00,65.0,63.0,30.01,ESE,105,0.0,1.0,93,0.00,,,0.00,,2013-01-16 14:12:00,
2013-01-16 09:23:00,66.0,64.0,30.01,East,94,2.0,3.0,93,0.00,,,0.00,,2013-01-16 14:23:00,
2013-01-16 09:33:00,68.0,65.0,30.02,ESE,102,0.0,0.0,91,0.00,,,0.00,,2013-01-16 14:33:00,
2013-01-16 09:43:00,68.0,65.0,30.02,ESE,102,0.0,0.0,91,0.00,,,0.00,,2013-01-16 14:43:00,
2013-01-16 09:53:00,70.0,66.0,30.02,ESE,123,0.0,3.0,87,0.00,,,0.00,,2013-01-16 14:53:00,
2013-01-16 10:03:00,73.0,66.0,30.03,SSE,150,2.0,5.0,78,0.00,,,0.00,,2013-01-16 15:03:00,
2013-01-16 10:12:00,73.0,66.0,30.03,SSE,150,2.0,5.0,78,0.00,,,0.00,,2013-01-16 15:12:00,
2013-01-16 10:23:00,75.0,65.0,30.03,SW,215,2.0,8.0,71,0.00,,,0.00,,2013-01-16 15:23:00,
2013-01-16 10:33:00,76.0,65.0,30.03,SW,226,0.0,1.0,68,0.00,,,0.00,,2013-01-16 15:33:00,
2013-01-16 10:43:00,76.0,65.0,30.03,SW,226,0.0,1.0,68,0.00,,,0.00,,2013-01-16 15:43:00,
2013-01-16 10:53:00,77.0,63.0,30.03,SSW,200,1.0,4.0,63,0.00,,,0.00,,2013-01-16 15:53:00,
2013-01-16 11:04:00,78.0,63.0,30.02,South,186,2.0,6.0,60,0.00,,,0.00,,2013-01-16 16:04:00,
2013-01-16 11:12:00,78.0,63.0,30.02,South,186,2.0,6.0,60,0.00,,,0.00,,2013-01-16 16:12:00,
2013-01-16 11:23:00,79.0,63.0,30.01,SSE,157,0.0,1.0,58,0.00,,,0.00,,2013-01-16 16:23:00,
2013-01-16 11:33:00,80.0,61.0,30.00,SW,235,2.0,6.0,53,0.00,,,0.00,,2013-01-16 16:33:00,
2013-01-16 11:43:00,80.0,61.0,30.00,SW,235,2.0,6.0,53,0.00,,,0.00,,2013-01-16 16:43:00,
2013-01-16 11:53:00,81.0,62.0,29.99,East,98,0.0,0.0,52,0.00,,,0.00,,2013-01-16 16:53:00,
2013-01-16 12:03:00,81.0,62.0,29.98,East,91,1.0,3.0,52,0.00,,,0.00,,2013-01-16 17:03:00,
2013-01-16 12:12:00,81.0,62.0,29.98,East,91,1.0,3.0,52,0.00,,,0.00,,2013-01-16 17:12:00,
2013-01-16 12:23:00,81.0,59.0,29.98,SSE,160,2.0,6.0,48,0.00,,,0.00,,2013-01-16 17:23:00,
2013-01-16 12:33:00,80.0,61.0,29.98,SW,214,0.0,2.0,52,0.00,,,0.00,,2013-01-16 17:33:00,
2013-01-16 12:44:00,80.0,61.0,29.98,SW,214,0.0,2.0,52,0.00,,,0.00,,2013-01-16 17:44:00,
2013-01-16 12:53:00,82.0,58.0,29.97,SSE,164,2.0,8.0,44,0.00,,,0.00,,2013-01-16 17:53:00,
2013-01-16 13:03:00,81.0,58.0,29.96,ESE,120,1.0,3.0,45,0.00,,,0.00,,2013-01-16 18:03:00,
2013-01-16 13:13:00,81.0,58.0,29.96,ESE,120,1.0,3.0,45,0.00,,,0.00,,2013-01-16 18:13:00,
2013-01-16 13:23:00,82.0,59.0,29.96,SSW,213,0.0,1.0,46,0.00,,,0.00,,2013-01-16 18:23:00,
2013-01-16 13:33:00,82.0,57.0,29.95,SW,223,3.0,7.0,43,0.00,,,0.00,,2013-01-16 18:33:00,
2013-01-16 13:42:00,82.0,57.0,29.95,SW,223,3.0,7.0,43,0.00,,,0.00,,2013-01-16 18:42:00,
2013-01-16 13:53:00,82.0,59.0,29.94,ENE,73,0.0,0.0,46,0.00,,,0.00,,2013-01-16 18:53:00,
2013-01-16 14:03:00,82.0,58.0,29.94,South,178,0.0,1.0,44,0.00,,,0.00,,2013-01-16 19:03:00,
2013-01-16 14:13:00,82.0,58.0,29.94,South,178,0.0,1.0,44,0.00,,,0.00,,2013-01-16 19:13:00,
2013-01-16 14:23:00,82.0,57.0,29.93,SW,215,3.0,5.0,42,0.00,,,0.00,,2013-01-16 19:23:00,
2013-01-16 14:33:00,83.0,57.0,29.93,WSW,238,2.0,7.0,41,0.00,,,0.00,,2013-01-16 19:33:00,
2013-01-16 14:43:00,83.0,57.0,29.93,WSW,238,2.0,7.0,41,0.00,,,0.00,,2013-01-16 19:43:00,
2013-01-16 14:53:00,82.0,57.0,29.93,WSW,238,1.0,4.0,42,0.00,,,0.00,,2013-01-16 19:53:00,
2013-01-16 15:03:00,80.0,58.0,29.93,South,182,0.0,0.0,47,0.00,,,0.00,,2013-01-16 20:03:00,
2013-01-16 15:12:00,80.0,58.0,29.93,South,182,0.0,0.0,47,0.00,,,0.00,,2013-01-16 20:12:00,
2013-01-16 15:23:00,80.0,57.0,29.93,SW,221,0.0,0.0,46,0.00,,,0.00,,2013-01-16 20:23:00,
2013-01-16 15:33:00,83.0,58.0,29.92,WSW,252,0.0,0.0,42,0.00,,,0.00,,2013-01-16 20:33:00,
2013-01-16 15:43:00,83.0,58.0,29.92,WSW,252,0.0,0.0,42,0.00,,,0.00,,2013-01-16 20:43:00,
2013-01-16 15:53:00,84.0,62.0,29.92,WSW,239,2.0,4.0,47,0.00,,,0.00,,2013-01-16 20:53:00,
2013-01-16 16:03:00,82.0,59.0,29.93,SW,215,2.0,5.0,46,0.00,,,0.00,,2013-01-16 21:03:00,
2013-01-16 16:12:00,82.0,59.0,29.93,SW,215,2.0,5.0,46,0.00,,,0.00,,2013-01-16 21:12:00,
2013-01-16 16:23:00,82.0,59.0,29.93,SW,221,1.0,2.0,46,0.00,,,0.00,,2013-01-16 21:23:00,
2013-01-16 16:33:00,81.0,59.0,29.93,SSW,209,1.0,4.0,47,0.00,,,0.00,,2013-01-16 21:33:00,
2013-01-16 16:43:00,81.0,59.0,29.93,SSW,209,1.0,4.0,47,0.00,,,0.00,,2013-01-16 21:43:00,
2013-01-16 16:53:00,81.0,59.0,29.93,South,189,1.0,2.0,47,0.00,,,0.00,,2013-01-16 21:53:00,
2013-01-16 17:03:00,80.0,59.0,29.93,SW,229,0.0,1.0,48,0.00,,,0.00,,2013-01-16 22:03:00,
2013-01-16 17:12:00,80.0,59.0,29.93,SW,229,0.0,1.0,48,0.00,,,0.00,,2013-01-16 22:12:00,
2013-01-16 17:23:00,79.0,58.0,29.93,South,184,1.0,5.0,49,0.00,,,0.00,,2013-01-16 22:23:00,
2013-01-16 17:33:00,78.0,59.0,29.93,SSW,206,2.0,4.0,52,0.00,,,0.00,,2013-01-16 22:33:00,
2013-01-16 17:43:00,78.0,59.0,29.93,SSW,206,2.0,4.0,52,0.00,,,0.00,,2013-01-16 22:43:00,
2013-01-16 17:53:00,77.0,60.0,29.94,SSW,200,2.0,3.0,55,0.00,,,0.00,,2013-01-16 22:53:00,
2013-01-16 18:03:00,76.0,59.0,29.94,South,178,1.0,3.0,56,0.00,,,0.00,,2013-01-16 23:03:00,
2013-01-16 18:12:00,76.0,59.0,29.94,South,178,1.0,3.0,56,0.00,,,0.00,,2013-01-16 23:12:00,
2013-01-16 18:23:00,76.0,60.0,29.95,SSW,211,2.0,5.0,58,0.00,,,0.00,,2013-01-16 23:23:00,
2013-01-16 18:32:00,75.0,61.0,29.95,SW,225,0.0,0.0,61,0.00,,,0.00,,2013-01-16 23:32:00,
2013-01-16 18:42:00,75.0,61.0,29.95,SW,225,0.0,0.0,61,0.00,,,0.00,,2013-01-16 23:42:00,
2013-01-16 18:53:00,74.0,61.0,29.95,WSW,249,0.0,0.0,63,0.00,,,0.00,,2013-01-16 23:53:00,
2013-01-16 19:02:00,73.0,61.0,29.95,SW,223,0.0,0.0,65,0.00,,,0.00,,2013-01-17 00:02:00,
2013-01-16 19:12:00,73.0,61.0,29.95,SW,223,0.0,0.0,65,0.00,,,0.00,,2013-01-17 00:12:00,
2013-01-16 19:22:00,72.0,60.0,29.95,SSW,199,0.0,0.0,67,0.00,,,0.00,,2013-01-17 00:22:00,
2013-01-16 19:32:00,71.0,61.0,29.96,SSW,213,0.0,0.0,70,0.00,,,0.00,,2013-01-17 00:32:00,
2013-01-16 19:42:00,71.0,61.0,29.96,SSW,213,0.0,0.0,70,0.00,,,0.00,,2013-01-17 00:42:00,
2013-01-16 19:53:00,70.0,60.0,29.96,SSW,195,0.0,0.0,71,0.00,,,0.00,,2013-01-17 00:53:00,
2013-01-16 20:02:00,70.0,61.0,29.96,SSW,195,0.0,0.0,72,0.00,,,0.00,,2013-01-17 01:02:00,
2013-01-16 20:12:00,70.0,61.0,29.96,SSW,195,0.0,0.0,72,0.00,,,0.00,,2013-01-17 01:12:00,
2013-01-16 20:22:00,68.0,59.0,29.96,SSW,195,0.0,0.0,74,0.00,,,0.00,,2013-01-17 01:22:00,
2013-01-16 20:33:00,67.0,58.0,29.96,SSW,195,0.0,0.0,74,0.00,,,0.00,,2013-01-17 01:33:00,
2013-01-16 20:42:00,67.0,58.0,29.96,SSW,195,0.0,0.0,74,0.00,,,0.00,,2013-01-17 01:42:00,
2013-01-16 20:53:00,66.0,58.0,29.96,SSW,195,0.0,0.0,76,0.00,,,0.00,,2013-01-17 01:53:00,
2013-01-16 21:02:00,66.0,59.0,29.96,SSW,195,0.0,0.0,78,0.00,,,0.00,,2013-01-17 02:02:00,
2013-01-16 21:12:00,66.0,59.0,29.96,SSW,195,0.0,0.0,78,0.00,,,0.00,,2013-01-17 02:12:00,
2013-01-16 21:22:00,65.0,59.0,29.96,SSE,156,0.0,0.0,80,0.00,,,0.00,,2013-01-17 02:22:00,
2013-01-16 21:32:00,64.0,59.0,29.96,ESE,109,0.0,0.0,83,0.00,,,0.00,,2013-01-17 02:32:00,
2013-01-16 21:42:00,64.0,59.0,29.96,ESE,109,0.0,0.0,83,0.00,,,0.00,,2013-01-17 02:42:00,
2013-01-16 21:52:00,64.0,59.0,29.96,ESE,109,0.0,0.0,83,0.00,,,0.00,,2013-01-17 02:52:00,
2013-01-16 22:03:00,63.0,58.0,29.96,ESE,109,0.0,0.0,85,0.00,,,0.00,,2013-01-17 03:03:00,
2013-01-16 22:12:00,63.0,58.0,29.96,ESE,109,0.0,0.0,85,0.00,,,0.00,,2013-01-17 03:12:00,
2013-01-16 22:22:00,62.0,57.0,29.96,ESE,109,0.0,0.0,85,0.00,,,0.00,,2013-01-17 03:22:00,
2013-01-16 22:32:00,62.0,58.0,29.96,ESE,109,0.0,0.0,86,0.00,,,0.00,,2013-01-17 03:32:00,
2013-01-16 22:43:00,62.0,58.0,29.96,ESE,109,0.0,0.0,86,0.00,,,0.00,,2013-01-17 03:43:00,
2013-01-16 22:53:00,62.0,58.0,29.96,ESE,109,0.0,0.0,86,0.00,,,0.00,,2013-01-17 03:53:00,
2013-01-16 23:02:00,61.0,57.0,29.96,ESE,109,0.0,0.0,86,0.00,,,0.00,,2013-01-17 04:02:00,
2013-01-16 23:12:00,61.0,57.0,29.96,ESE,109,0.0,0.0,87,0.00,,,0.00,,2013-01-17 04:12:00,
2013-01-16 23:22:00,61.0,57.0,29.96,ESE,109,0.0,0.0,87,0.00,,,0.00,,2013-01-17 04:22:00,
2013-01-16 23:33:00,61.0,57.0,29.96,ESE,109,0.0,0.0,87,0.00,,,0.00,,2013-01-17 04:33:00,
2013-01-16 23:42:00,61.0,57.0,29.96,ESE,109,0.0,0.0,87,0.00,,,0.00,,2013-01-17 04:42:00,
2013-01-16 23:52:00,61.0,57.0,29.96,ESE,109,0.0,0.0,88,0.00,,,0.00,,2013-01-17 04:52:00,